Home   Weather   Rendsburg   Past weeks

Flag for Germany Past Weather in Rendsburg, Schleswig-Holstein, Germany — Yesterday and Last 2 Weeks

Now
34 °F

Passing clouds.


Feels Like: 34 °F
Forecast: 30 / 39 °F
Wind: 2 mph from North

Location: Hohn

Current Time: Dec 4, 2016 at 1:02:58 am

Latest Report: Dec 4, 2016 at 12:20 am


Visibility: 4 mi

Pressure: 30.36 "Hg

Humidity: 93%

Dew Point: 32 °F

Location of RendsburgLocation

Past Weather in Rendsburg — Graph

°F

Rendsburg Temperature Yesterday

Maximum temperature yesterday: 34 °F (at 2:20 pm)
Minimum temperature yesterday: 21 °F (at 7:02 am)
Average temperature yesterday: 26 °F

High & Low Weather Summary for the Past Weeks

 TemperatureHumidityPressure
High55 °F (Nov 22, 12:20 pm)100% (Nov 23, 7:20 pm)30.54 "Hg (Nov 23, 7:20 pm)
Low19 °F (Nov 29, 3:20 am)53% (Nov 27, 2:20 pm)29.24 "Hg (Nov 20, 4:20 pm)
Average39 °F85%30.06 "Hg
* Reported Nov 18 11:20 pm — Dec 3 11:20 pm, Rendsburg, Weather by CustomWeather, © 2016

Note: Actual official high and low records may vary slightly from our data, if they occured in-between our weather recording intervals... More about our weather records

Advertising

Rendsburg Weather History for the Previous 24 Hours

Scroll right to see more
 ConditionsComfort  
Time TempWeatherWind HumidityBarometerVisibility
11:20 pm
Sat, Dec 3
28 °FIce fog.1 mph93%30.33 "Hg3 mi
10:20 pm27 °FIce fog.3 mph93%30.33 "Hg2 mi
9:52 pm25 °FIce fog.2 mph93%30.33 "Hg1 mi
9:20 pm23 °FIce fog.No wind93%30.33 "Hg1 mi
8:20 pm27 °FIce fog.2 mph93%30.33 "Hg2 mi
7:58 pm27 °FIce fog.2 mph93%30.33 "Hg1 mi
7:20 pm27 °FIce fog.2 mph93%30.33 "Hg2 mi
6:20 pm30 °FIce fog.5 mph93%30.33 "Hg0 mi
5:20 pm27 °FIce fog.3 mph93%30.30 "Hg0 mi
4:20 pm28 °FIce fog.1 mph93%30.30 "Hg2 mi
3:20 pm32 °FIce fog.3 mph87%30.30 "Hg3 mi
2:20 pm34 °FFog.3 mph87%30.30 "Hg2 mi
1:48 pm32 °FIce fog.2 mph93%30.30 "Hg1 mi
1:20 pm32 °FIce fog.3 mph93%30.30 "Hg0 mi
12:20 pm32 °FIce fog.1 mph87%30.30 "Hg1 mi
11:20 am28 °FIce fog.1 mph93%30.30 "Hg0 mi
10:20 am27 °FIce fog.1 mph93%30.30 "Hg0 mi
9:20 am23 °FIce fog.No wind93%30.30 "Hg0 mi
8:20 am21 °FIce fog.2 mph93%30.27 "Hg0 mi
7:52 am21 °FLight fog.1 mph93%30.27 "Hg1 mi
7:20 am23 °FLight fog.1 mph86%30.27 "Hg1 mi
7:02 am21 °FIce fog.2 mph93%30.27 "Hg1 mi
6:20 am23 °FFog.1 mph86%30.27 "Hg5 mi
5:20 am23 °FFog.1 mph86%30.24 "Hg5 mi
4:20 am23 °FFog.2 mph93%30.24 "Hg1 mi
3:20 am25 °FFog.1 mph86%30.24 "Hg1 mi
2:20 am25 °FIce fog.2 mph93%30.24 "Hg2 mi
1:20 am27 °FFog.1 mph93%30.24 "Hg5 mi
Weather by CustomWeather, © 2016

See weather overviewHow to use our weather pages